EW5804 Weather Reports


Display with metric or nautical units.
time (UTC)temp
F
wind
direction
speed
MPH
gust
MPH
rain 1hr
in
rain 24hr
in
rain mn
in
humidity
%
barometer
mb
20260901030807 74 55 1.0 2.0 0.00 1.22 1.22 91 1018.6
20260901030300 74 55 0.0 2.0 0.00 1.22 1.22 91 1018.6
20260901025745 74 64 0.0 0.0 0.00 1.22 1.22 91 1018.5
20260901025239 74 64 0.0 0.0 0.00 1.22 1.22 91 1018.4
20260901024745 74 64 0.0 0.0 0.00 1.22 1.22 91 1018.5
20260901024230 75 65 0.0 0.0 0.00 1.22 1.22 91 1018.5
20260901023719 75 64 0.0 1.0 0.00 1.22 1.22 91 1018.5
20260901023214 75 64 0.0 1.0 0.00 1.22 1.22 91 1018.5
20260901022709 75 64 0.0 0.0 0.00 1.22 1.22 91 1018.6
20260901022204 75 64 0.0 0.0 0.00 1.22 1.22 91 1018.5
20260901021919 75 64 0.0 1.0 0.00 1.22 1.22 91 1018.6
20260901021203 75 64 0.0 1.0 0.00 1.22 1.22 91 1018.6
20260901020657 75 64 0.0 0.0 0.00 1.22 1.22 91 1018.7
20260901020143 75 64 0.0 0.0 0.00 1.22 1.22 91 1018.7
20260901015638 75 64 0.0 1.0 0.00 1.22 1.22 91 1018.7
20260901015128 75 64 1.0 1.0 0.00 1.22 1.22 91 1018.7
20260901014634 76 64 0.0 2.0 0.00 1.22 1.22 91 1018.7
20260901014115 76 64 1.0 3.0 0.00 1.22 1.22 91 1018.7
20260901013828 76 64 2.0 3.0 0.00 1.22 1.22 91 1018.6
20260901013103 76 16 1.0 3.0 0.00 1.22 1.22 91 1018.7
20260901012555 76 323 1.0 3.0 0.00 1.22 1.22 91 1018.8
20260901012050 76 179 1.0 5.0 0.00 1.22 1.22 91 1018.6
20260901011544 76 325 2.0 5.0 0.00 1.22 1.22 90 1018.6
20260901011039 76 276 1.0 3.0 0.00 1.22 1.22 90 1018.5
20260901010753 76 275 0.0 1.0 0.00 1.22 1.22 90 1018.3
20260901010028 76 276 0.0 1.0 0.00 1.22 1.22 90 1018.3
20260901005519 76 275 0.0 0.0 0.00 1.22 1.22 90 1018.2
20260901005013 76 275 0.0 0.0 0.00 1.22 1.22 90 1018.2
20260901004508 76 275 0.0 0.0 0.00 1.22 1.22 90 1018.1
20260901004003 76 276 0.0 0.0 0.00 1.22 1.22 90 1018.0
20260901003457 76 275 0.0 1.0 0.00 1.22 1.22 90 1018.0
20260901002951 76 276 0.0 1.0 0.00 1.22 1.22 90 1018.0
20260901002451 76 275 0.0 1.0 0.00 1.22 1.22 90 1017.9
20260901001950 77 277 0.0 0.0 0.00 1.22 1.22 90 1017.9
20260901001449 77 278 0.0 0.0 0.00 1.22 1.22 90 1017.9
20260901000950 77 278 0.0 2.0 0.00 1.22 1.22 89 1018.0
20260901000451 77 278 0.0 2.0 0.00 1.22 1.22 89 1017.9
20260831235948 77 278 0.0 1.0 0.00 1.22 1.22 89 1017.8
20260831235445 77 278 0.0 2.0 0.00 1.22 1.22 89 1017.8
20260831234943 77 278 0.0 2.0 0.00 1.22 1.22 89 1017.7
20260831234446 77 278 0.0 2.0 0.00 1.22 1.22 89 1017.7
20260831233947 78 277 0.0 1.0 0.00 1.22 1.22 89 1017.7
20260831233703 78 278 0.0 1.0 0.00 1.22 1.22 89 1017.6
20260831232956 78 355 0.0 1.0 0.00 1.22 1.22 88 1017.7
20260831232721 78 355 0.0 1.0 0.00 1.22 1.22 88 1017.9
20260831231942 78 355 0.0 1.0 0.00 1.22 1.22 88 1017.9
20260831231438 78 355 0.0 1.0 0.00 1.22 1.22 88 1017.8
20260831230939 78 355 0.0 0.0 0.00 1.22 1.22 88 1017.9
20260831230659 78 355 0.0 0.0 0.00 1.22 1.22 88 1017.8
20260831225939 79 31 0.0 1.0 0.00 1.22 1.22 88 1017.9
20260831225440 79 115 0.0 2.0 0.00 1.22 1.22 88 1017.7
20260831224938 79 115 1.0 2.0 0.00 1.22 1.22 87 1017.6
20260831224709 79 115 1.0 3.0 0.00 1.22 1.22 87 1017.7
20260831223937 79 115 2.0 4.0 0.00 1.22 1.22 87 1017.8
20260831223438 79 57 3.0 6.0 0.00 1.22 1.22 87 1017.6
20260831223421 79 47 2.0 6.0 0.00 1.22 1.22 86 1017.6
20260831222439 79 90 3.0 8.0 0.00 1.22 1.22 86 1017.6
20260831221938 79 52 5.0 9.0 0.00 1.22 1.22 86 1017.5
20260831221438 79 51 4.0 9.0 0.00 1.22 1.22 87 1017.6
20260831220937 79 46 3.0 7.0 0.00 1.22 1.22 89 1017.6
20260831220438 79 41 3.0 5.0 0.00 1.22 1.22 89 1017.6
20260831220156 79 43 2.0 5.0 0.00 1.22 1.22 90 1017.6
20260831215701 79 60 1.0 4.0 0.00 1.22 1.22 90 1017.6
20260831214936 80 119 0.0 1.0 0.00 1.22 1.22 91 1017.6
20260831214430 79 119 0.0 1.0 0.00 1.22 1.22 91 1017.6
20260831213923 79 119 0.0 1.0 0.00 1.22 1.22 91 1017.5
20260831213417 79 117 0.0 1.0 0.00 1.22 1.22 91 1017.3
20260831212912 79 113 0.0 2.0 0.01 1.22 1.22 91 1017.3
20260831212406 78 115 0.0 2.0 0.01 1.22 1.22 91 1017.3
20260831211858 78 113 0.0 2.0 0.01 1.22 1.22 92 1017.4
20260831211833 78 108 0.0 2.0 0.03 1.22 1.22 91 1017.5
20260831210846 77 108 1.0 3.0 0.05 1.22 1.22 91 1017.5
20260831210343 76 105 1.0 3.0 0.07 1.22 1.22 91 1017.6
20260831205836 76 209 0.0 2.0 0.12 1.22 1.22 91 1017.6
20260831205330 75 210 0.0 2.0 0.29 1.22 1.22 91 1017.7
20260831204824 75 207 1.0 4.0 0.51 1.22 1.22 90 1017.7
20260831204535 74 207 1.0 4.0 0.65 1.22 1.22 90 1017.8
20260831203811 74 313 2.0 4.0 0.67 1.22 1.22 90 1018.0
20260831203304 74 1 2.0 5.0 0.67 1.22 1.22 89 1018.0
20260831202800 74 87 2.0 5.0 0.67 1.21 1.21 89 1018.2
20260831202744 74 151 2.0 6.0 0.67 1.21 1.21 89 1018.6
20260831201747 74 164 2.0 6.0 0.71 1.21 1.21 88 1018.9
20260831201242 74 169 1.0 6.0 0.79 1.19 1.19 88 1019.1
20260831200735 74 254 2.0 7.0 0.87 1.17 1.17 87 1019.3
20260831200230 74 263 5.0 14.0 1.02 1.13 1.14 87 1019.3
20260831195724 74 312 8.0 19.0 1.02 1.04 1.06 86 1019.3
20260831195216 74 48 7.0 17.0 0.88 0.88 0.88 85 1019.4
20260831194712 75 320 6.0 21.0 0.66 0.66 0.66 85 1019.7
20260831194205 76 211 7.0 21.0 0.56 0.56 0.56 85 1019.6
20260831193658 76 280 5.0 13.0 0.55 0.55 0.55 86 1019.3
20260831193411 77 290 3.0 11.0 0.55 0.55 0.55 86 1018.8
20260831192647 77 53 2.0 6.0 0.54 0.54 0.54 85 1018.1
20260831192142 78 140 6.0 15.0 0.53 0.53 0.54 84 1018.0
20260831191634 78 66 6.0 15.0 0.49 0.49 0.49 83 1018.0
20260831191128 81 37 5.0 19.0 0.38 0.38 0.39 80 1018.3
20260831190841 83 355 8.0 19.0 0.28 0.28 0.28 76 1018.4
20260831190346 88 40 5.0 17.0 0.10 0.10 0.11 71 1018.1
20260831190058 92 270 3.0 10.0 0.00 0.00 0.00 64 1017.9
20260831185105 92 247 3.0 8.0 0.00 0.00 0.00 62 1017.7
20260831184817 92 214 3.0 11.0 0.00 0.00 0.00 63 1017.6
20260831184053 92 197 2.0 8.0 0.00 0.00 0.00 61 1017.7
20260831183548 93 64 2.0 7.0 0.00 0.00 0.00 63 1017.8
20260831183306 93 138 2.0 7.0 0.00 0.00 0.00 61 1017.8
20260831182534 93 113 2.0 7.0 0.00 0.00 0.00 63 1017.9
20260831182028 93 190 1.0 5.0 0.00 0.00 0.00 62 1017.9
20260831181747 93 211 2.0 7.0 0.00 0.00 0.00 64 1018.0
20260831181019 93 43 2.0 7.0 0.00 0.00 0.00 64 1018.0
20260831180512 93 72 2.0 4.0 0.00 0.00 0.00 62 1018.1
20260831180234 93 275 2.0 4.0 0.00 0.00 0.00 62 1018.2
20260831175458 93 269 1.0 4.0 0.00 0.00 0.00 60 1018.2
20260831175001 93 184 1.0 3.0 0.00 0.00 0.00 64 1018.3
20260831174457 92 169 2.0 6.0 0.00 0.00 0.00 67 1018.3
20260831173955 92 242 2.0 6.0 0.00 0.00 0.00 63 1018.2
20260831173456 92 305 3.0 7.0 0.00 0.00 0.00 64 1018.4
20260831172955 92 280 2.0 7.0 0.00 0.00 0.00 63 1018.4
20260831172714 92 259 1.0 4.0 0.00 0.00 0.00 66 1018.4
20260831171957 92 174 2.0 5.0 0.00 0.00 0.00 65 1018.4
20260831171455 92 166 2.0 5.0 0.00 0.00 0.00 70 1018.4
20260831170953 91 278 2.0 6.0 0.00 0.00 0.00 67 1018.5
20260831170454 91 201 2.0 6.0 0.00 0.00 0.00 68 1018.4
20260831165955 90 286 2.0 4.0 0.00 0.00 0.00 68 1018.5
20260831165716 91 296 1.0 4.0 0.00 0.00 0.00 67 1018.7
20260831164954 91 312 2.0 6.0 0.00 0.00 0.00 67 1018.6
20260831164453 91 168 2.0 6.0 0.00 0.00 0.00 67 1018.6
20260831163952 91 195 2.0 6.0 0.00 0.00 0.00 68 1018.6
20260831163449 90 266 2.0 6.0 0.00 0.00 0.00 67 1018.7
20260831162951 90 49 1.0 4.0 0.00 0.00 0.00 69 1018.9
20260831162452 90 52 1.0 4.0 0.00 0.00 0.00 69 1018.8
20260831161944 89 49 2.0 5.0 0.00 0.00 0.00 69 1019.0
20260831161152 90 172 2.0 5.0 0.00 0.00 0.00 70 1019.0
20260831160439 89 313 2.0 5.0 0.00 0.00 0.00 68 1019.0
20260831155919 89 230 2.0 4.0 0.00 0.00 0.00 69 1019.1
20260831155415 89 282 2.0 6.0 0.00 0.00 0.00 67 1019.1
20260831154909 89 282 3.0 6.0 0.00 0.00 0.00 68 1019.2
20260831154403 89 311 2.0 5.0 0.00 0.00 0.00 67 1019.3
20260831153857 90 332 1.0 4.0 0.00 0.00 0.00 70 1019.3
20260831153352 90 255 1.0 4.0 0.00 0.00 0.00 68 1019.3
20260831152851 89 267 2.0 4.0 0.00 0.00 0.00 69 1019.4
20260831152351 89 275 2.0 5.0 0.00 0.00 0.00 70 1019.5
20260831151848 89 194 2.0 6.0 0.00 0.00 0.00 69 1019.4
20260831151347 89 267 2.0 6.0 0.00 0.00 0.00 70 1019.4
20260831150848 88 252 2.0 6.0 0.00 0.00 0.00 69 1019.4
20260831150348 88 184 2.0 6.0 0.00 0.00 0.00 69 1019.5
20260831145845 88 260 2.0 6.0 0.00 0.00 0.00 69 1019.4
20260831145345 88 198 1.0 4.0 0.00 0.00 0.00 71 1019.4
20260831144847 87 181 1.0 5.0 0.00 0.00 0.00 72 1019.4
20260831144623 87 181 2.0 5.0 0.00 0.00 0.00 70 1019.3
20260831143846 87 186 1.0 5.0 0.00 0.00 0.00 72 1019.3
20260831143344 86 201 1.0 5.0 0.00 0.00 0.00 74 1019.4
20260831142845 86 249 1.0 3.0 0.00 0.00 0.00 74 1019.6
20260831142346 85 194 2.0 4.0 0.00 0.00 0.00 73 1019.6
20260831141845 85 222 2.0 6.0 0.00 0.00 0.00 74 1019.6
20260831141346 85 251 2.0 6.0 0.00 0.00 0.00 75 1019.5
20260831140847 85 260 2.0 6.0 0.00 0.00 0.00 74 1019.6
20260831140346 85 198 2.0 6.0 0.00 0.00 0.00 75 1019.6
20260831135845 84 271 2.0 7.0 0.00 0.00 0.00 75 1019.6
20260831135340 84 192 2.0 7.0 0.00 0.00 0.00 77 1019.6
20260831135325 83 204 2.0 4.0 0.00 0.00 0.00 79 1019.5
20260831134341 82 204 1.0 4.0 0.00 0.00 0.00 80 1019.5
20260831133839 82 204 1.0 5.0 0.00 0.00 0.00 83 1019.4
20260831133341 81 242 2.0 5.0 0.00 0.00 0.00 83 1019.4
20260831133107 80 199 2.0 3.0 0.00 0.00 0.00 85 1019.4
20260831132352 79 255 1.0 4.0 0.00 0.00 0.00 86 1019.4
20260831132317 79 190 1.0 4.0 0.00 0.00 0.00 89 1019.2
20260831131339 78 221 1.0 4.0 0.00 0.00 0.00 91 1019.3
20260831130839 77 194 1.0 4.0 0.00 0.00 0.00 92 1019.4
20260831130340 77 199 1.0 4.0 0.00 0.00 0.00 92 1019.3
20260831125838 76 199 1.0 4.0 0.00 0.00 0.00 92 1019.4
20260831125339 76 245 1.0 3.0 0.00 0.00 0.00 93 1019.4
20260831124841 76 253 1.0 3.0 0.00 0.00 0.00 93 1019.3
20260831124339 75 244 0.0 3.0 0.00 0.00 0.00 93 1019.3
20260831123840 74 238 0.0 0.0 0.00 0.00 0.00 92 1019.4
20260831123340 74 238 0.0 0.0 0.00 0.00 0.00 92 1019.3
20260831122838 73 238 0.0 0.0 0.00 0.00 0.00 92 1019.4
20260831122335 73 238 0.0 0.0 0.00 0.00 0.00 92 1019.4
20260831121827 73 238 0.0 0.0 0.00 0.00 0.00 92 1019.4
20260831121548 73 238 0.0 0.0 0.00 0.00 0.00 92 1019.5
20260831120814 73 237 0.0 0.0 0.00 0.00 0.00 92 1019.5
20260831120309 73 238 0.0 0.0 0.00 0.00 0.00 92 1019.5
20260831115802 73 238 0.0 0.0 0.00 0.00 0.00 92 1019.6
20260831115256 72 238 0.0 0.0 0.00 0.00 0.00 92 1019.6
20260831114751 72 238 0.0 0.0 0.00 0.00 0.00 92 1019.6
20260831114245 72 238 0.0 0.0 0.00 0.00 0.00 92 1019.6
20260831113738 72 238 0.0 0.0 0.00 0.00 0.00 92 1019.6
20260831113234 72 238 0.0 0.0 0.00 0.00 0.00 92 1019.6
20260831112725 72 207 0.0 0.0 0.00 0.00 0.00 92 1019.6
20260831112220 71 206 0.0 0.0 0.00 0.00 0.00 92 1019.4
20260831111713 71 207 0.0 0.0 0.00 0.00 0.00 92 1019.5
20260831111435 71 206 0.0 0.0 0.00 0.00 0.00 92 1019.5
20260831110922 70 206 0.0 0.0 0.00 0.00 0.00 92 1019.5
20260831110420 70 206 0.0 0.0 0.00 0.00 0.00 92 1019.4
20260831105651 70 206 0.0 0.0 0.00 0.00 0.00 92 1019.4
20260831105158 70 206 0.0 0.0 0.00 0.00 0.00 92 1019.5
20260831105125 70 206 0.0 0.0 0.00 0.00 0.00 92 1019.3
20260831104132 71 206 0.0 0.0 0.00 0.00 0.00 92 1019.2
20260831103627 71 205 0.0 0.0 0.00 0.00 0.00 92 1019.2
20260831103121 71 207 0.0 0.0 0.00 0.00 0.00 92 1019.1
20260831102617 71 207 0.0 0.0 0.00 0.00 0.00 92 1019.1
20260831102108 71 206 0.0 0.0 0.00 0.00 0.00 92 1019.0
20260831101603 71 206 0.0 0.0 0.00 0.00 0.00 92 1018.9
20260831101055 71 206 0.0 0.0 0.00 0.00 0.00 92 1018.9
20260831100553 71 206 0.0 0.0 0.00 0.00 0.00 92 1018.9
20260831100057 71 206 0.0 0.0 0.00 0.00 0.00 92 1018.9
20260831095537 71 206 0.0 0.0 0.00 0.00 0.00 92 1018.9
20260831095034 71 206 0.0 0.0 0.00 0.00 0.00 92 1018.9
20260831094526 71 206 0.0 0.0 0.00 0.00 0.00 91 1019.0
20260831094022 71 206 0.0 0.0 0.00 0.00 0.00 91 1019.1
20260831093736 71 207 0.0 0.0 0.00 0.00 0.00 91 1019.0
20260831093008 71 206 0.0 0.0 0.00 0.00 0.00 92 1019.0
20260831092504 71 206 0.0 0.0 0.00 0.00 0.00 91 1018.9
20260831091956 71 207 0.0 0.0 0.00 0.00 0.00 91 1019.0
20260831091451 71 205 0.0 0.0 0.00 0.00 0.00 91 1018.9
20260831090947 71 206 0.0 0.0 0.00 0.00 0.00 92 1018.9
20260831090437 71 207 0.0 0.0 0.00 0.00 0.00 91 1019.0
20260831085933 71 206 0.0 0.0 0.00 0.00 0.00 91 1018.9
20260831085427 71 220 0.0 0.0 0.00 0.00 0.00 91 1018.9
20260831084922 71 220 0.0 0.0 0.00 0.00 0.00 91 1019.0
20260831084414 71 220 0.0 0.0 0.00 0.00 0.00 91 1019.0
20260831083910 71 220 0.0 0.0 0.00 0.00 0.00 91 1018.9
20260831083626 71 220 0.0 0.0 0.00 0.00 0.00 91 1019.0
20260831083124 71 220 0.0 0.0 0.00 0.00 0.00 91 1019.0
20260831082614 71 220 0.0 0.0 0.00 0.00 0.00 91 1019.0
20260831081843 71 219 0.0 0.0 0.00 0.00 0.00 91 1019.1
20260831081607 71 220 0.0 0.0 0.00 0.00 0.00 91 1019.2
20260831081051 71 220 0.0 0.0 0.00 0.00 0.00 91 1019.2
20260831080328 71 220 0.0 0.0 0.00 0.00 0.00 91 1019.2
20260831075819 71 220 0.0 0.0 0.00 0.00 0.00 91 1019.3
20260831075314 71 220 0.0 0.0 0.00 0.00 0.00 91 1019.2
20260831074807 72 219 0.0 0.0 0.00 0.00 0.00 91 1019.3
20260831074301 72 220 0.0 0.0 0.00 0.00 0.00 91 1019.2
20260831073809 71 220 0.0 0.0 0.00 0.00 0.00 91 1019.3
20260831073250 71 220 0.0 0.0 0.00 0.00 0.00 91 1019.3
20260831073005 72 219 0.0 0.0 0.00 0.00 0.00 91 1019.3
20260831072239 72 220 0.0 0.0 0.00 0.00 0.00 91 1019.4
20260831071733 72 220 0.0 0.0 0.00 0.00 0.00 91 1019.3
20260831071226 72 220 0.0 0.0 0.00 0.00 0.00 91 1019.3
20260831070721 72 220 0.0 0.0 0.00 0.00 0.00 91 1019.2
20260831070213 72 220 0.0 0.0 0.00 0.00 0.00 91 1019.2
20260831065709 72 220 0.0 0.0 0.00 0.00 0.00 91 1019.3
20260831065201 72 220 0.0 0.0 0.00 0.00 0.00 91 1019.2
20260831064656 72 220 0.0 0.0 0.00 0.00 0.00 91 1019.3
20260831064157 72 220 0.0 0.0 0.00 0.00 0.00 91 1019.2
20260831063644 72 220 0.0 0.0 0.00 0.00 0.00 91 1019.3
20260831063359 72 219 0.0 0.0 0.00 0.00 0.00 91 1019.3
20260831062633 72 220 0.0 0.0 0.00 0.00 0.00 91 1019.4
20260831062351 72 220 0.0 0.0 0.00 0.00 0.00 91 1019.3
20260831061619 72 220 0.0 1.0 0.00 0.00 0.00 91 1019.3
20260831061115 72 220 0.0 1.0 0.00 0.00 0.00 91 1019.2
20260831060607 73 220 0.0 2.0 0.00 0.00 0.00 91 1019.1
20260831060107 73 214 0.0 2.0 0.00 0.00 0.00 91 1019.2
20260831055607 73 219 0.0 1.0 0.00 0.00 0.00 91 1019.3
20260831055104 73 219 0.0 2.0 0.00 0.00 0.00 91 1019.4
20260831054601 73 219 1.0 2.0 0.00 0.00 0.00 91 1019.4
20260831054324 73 219 1.0 3.0 0.00 0.00 0.00 91 1019.4
20260831053602 73 219 1.0 3.0 0.00 0.00 0.00 91 1019.4
20260831053343 73 217 0.0 2.0 0.00 0.00 0.00 91 1019.4
20260831052617 73 217 0.0 2.0 0.00 0.00 0.00 90 1019.3
20260831052113 73 218 0.0 0.0 0.00 0.00 0.00 90 1019.3
20260831051559 73 219 0.0 0.0 0.00 0.00 0.00 90 1019.3
20260831051056 73 219 0.0 1.0 0.00 0.00 0.00 90 1019.4
20260831050556 73 219 0.0 2.0 0.00 0.00 0.00 90 1019.5
20260831050106 73 218 1.0 2.0 0.00 0.00 0.00 90 1019.6
20260831045821 73 215 0.0 2.0 0.00 0.00 0.00 90 1019.6
20260831045056 73 216 0.0 2.0 0.00 0.00 0.00 90 1019.6
20260831044557 73 215 0.0 2.0 0.00 0.00 0.00 90 1019.6
20260831044056 73 215 1.0 3.0 0.00 0.00 0.00 90 1019.6
20260831043818 73 217 0.0 3.0 0.00 0.00 0.00 90 1019.6
20260831043316 73 203 0.0 0.0 0.00 0.00 0.00 90 1019.6
20260831042819 73 124 0.0 0.0 0.00 0.00 0.00 90 1019.6
20260831042054 73 124 0.0 0.0 0.00 0.00 0.00 90 1019.7
20260831041554 73 124 0.0 0.0 0.00 0.00 0.00 90 1019.6
20260831041312 73 124 0.0 0.0 0.00 0.00 0.00 90 1019.6
20260831040554 74 124 0.0 0.0 0.00 0.00 0.00 90 1019.6
20260831040328 74 124 0.0 0.0 0.00 0.00 0.00 90 1019.7
20260831035548 74 124 0.0 0.0 0.00 0.00 0.00 90 1019.7
20260831035042 74 124 0.0 0.0 0.00 0.00 0.00 90 1019.6
20260831034542 74 124 1.0 2.0 0.00 0.00 0.00 90 1019.9
20260831034044 74 124 1.0 2.0 0.00 0.00 0.00 90 1020.0
20260831033542 74 123 0.0 1.0 0.00 0.00 0.00 89 1020.0
20260831033043 74 123 0.0 1.0 0.00 0.00 0.00 89 1020.0
20260831032542 74 122 0.0 1.0 0.00 0.00 0.00 89 1019.8
20260831032043 74 124 0.0 1.0 0.00 0.00 0.00 89 1019.8
20260831031752 74 123 0.0 1.0 0.00 0.00 0.00 89 1020.0